TUI625 LOWW-LGIR

Flight info

Callsign TUI625
Flight time 2h 4m
Altitude 35000
Route ARSIN DCT NALOX DCT OSDUK DCT SIVLA DCT PODOB DCT UTOMO DCT ENFAR DCT BITLA DCT KEA UL607 GIVIS T514 XAVIS
Aircraft B738/M-SDE2E3FGHIRWXY/LB1

Departure

Time 2026-04-21 19:10
Airport Vienna International Airport (LOWW)

Arrival

Time 2026-04-21 21:14
Airport Heraklion International Nikos Kazantzakis Airport (LGIR)
Time Latitude Longitude Altitude Speed Heading
2026-04-21 18:19 48.12020 16.55605 583 ft 0 kts 118°
2026-04-21 18:54 48.12022 16.55598 583 ft 2 kts 118°
2026-04-21 18:54 48.12029 16.55578 583 ft 2 kts 117°
2026-04-21 18:54 48.12039 16.55560 583 ft 2 kts 147°
2026-04-21 18:55 48.12048 16.55553 583 ft 2 kts 162°
2026-04-21 18:55 48.12068 16.55551 582 ft 2 kts 194°
2026-04-21 18:55 48.12076 16.55555 582 ft 1 kts 208°
2026-04-21 18:55 48.12080 16.55559 582 ft 0 kts 207°
2026-04-21 19:00 48.12074 16.55555 582 ft 1 kts 205°
2026-04-21 19:00 48.12060 16.55546 582 ft 2 kts 204°
2026-04-21 19:00 48.12044 16.55536 583 ft 2 kts 203°
2026-04-21 19:00 48.12028 16.55524 583 ft 2 kts 205°
2026-04-21 19:01 48.12009 16.55510 583 ft 2 kts 207°
2026-04-21 19:01 48.11990 16.55496 583 ft 3 kts 207°
2026-04-21 19:01 48.11966 16.55478 583 ft 4 kts 206°
2026-04-21 19:01 48.11938 16.55458 583 ft 4 kts 204°
2026-04-21 19:02 48.11908 16.55442 583 ft 4 kts 194°
2026-04-21 19:02 48.11874 16.55434 583 ft 4 kts 188°
2026-04-21 19:02 48.11839 16.55428 583 ft 4 kts 180°
2026-04-21 19:02 48.11807 16.55448 583 ft 5 kts 138°
2026-04-21 19:03 48.11789 16.55495 583 ft 5 kts 116°
2026-04-21 19:03 48.11772 16.55549 583 ft 5 kts 115°
2026-04-21 19:03 48.11755 16.55604 584 ft 5 kts 116°
2026-04-21 19:03 48.11736 16.55662 583 ft 6 kts 116°
2026-04-21 19:04 48.11717 16.55723 583 ft 6 kts 116°
2026-04-21 19:04 48.11696 16.55787 583 ft 6 kts 116°
2026-04-21 19:04 48.11675 16.55854 584 ft 7 kts 116°
2026-04-21 19:04 48.11651 16.55925 585 ft 7 kts 116°
2026-04-21 19:05 48.11626 16.56005 587 ft 8 kts 116°
2026-04-21 19:05 48.11598 16.56090 589 ft 9 kts 116°
2026-04-21 19:05 48.11568 16.56183 590 ft 10 kts 116°
2026-04-21 19:05 48.11536 16.56282 592 ft 10 kts 116°
2026-04-21 19:06 48.11499 16.56398 596 ft 13 kts 116°
2026-04-21 19:06 48.11454 16.56535 601 ft 15 kts 116°
2026-04-21 19:06 48.11402 16.56697 603 ft 19 kts 117°
2026-04-21 19:06 48.11335 16.56901 605 ft 23 kts 116°
2026-04-21 19:07 48.11251 16.57153 605 ft 28 kts 115°
2026-04-21 19:07 48.11156 16.57444 601 ft 30 kts 117°
2026-04-21 19:07 48.11063 16.57642 599 ft 13 kts 173°
2026-04-21 19:07 48.11002 16.57612 600 ft 8 kts 209°
2026-04-21 19:08 48.10959 16.57560 601 ft 7 kts 235°
2026-04-21 19:08 48.10943 16.57492 601 ft 6 kts 265°
2026-04-21 19:08 48.10949 16.57435 602 ft 4 kts 291°
2026-04-21 19:08 48.10950 16.57432 602 ft 0 kts 292°
2026-04-21 19:09 48.10950 16.57430 602 ft 4 kts 293°
2026-04-21 19:09 48.11079 16.57033 605 ft 84 kts 297°
2026-04-21 19:10 48.11462 16.55851 589 ft 159 kts 297°
2026-04-21 19:10 48.11975 16.54195 1197 ft 175 kts 295°
2026-04-21 19:10 48.12463 16.52528 2173 ft 181 kts 289°
2026-04-21 19:10 48.12422 16.50566 2809 ft 202 kts 254°
2026-04-21 19:11 48.11503 16.48769 3326 ft 231 kts 217°
2026-04-21 19:11 48.09909 16.47839 3974 ft 251 kts 192°
2026-04-21 19:11 48.08110 16.47394 4683 ft 267 kts 185°
2026-04-21 19:11 48.06122 16.47499 4950 ft 286 kts 172°
2026-04-21 19:12 48.04116 16.47909 4923 ft 288 kts 172°
2026-04-21 19:12 48.02088 16.48287 4920 ft 282 kts 172°
2026-04-21 19:12 48.00101 16.48641 4923 ft 282 kts 172°
2026-04-21 19:12 47.98153 16.48938 4920 ft 283 kts 178°
2026-04-21 19:13 47.96199 16.48675 4919 ft 283 kts 197°
2026-04-21 19:13 47.94416 16.47535 4933 ft 282 kts 211°
2026-04-21 19:13 47.92713 16.46068 4922 ft 283 kts 212°
2026-04-21 19:13 47.90992 16.44595 4919 ft 282 kts 211°
2026-04-21 19:14 47.89215 16.43227 5123 ft 300 kts 204°
2026-04-21 19:14 47.87214 16.42490 6348 ft 294 kts 182°
2026-04-21 19:14 47.85257 16.42846 7502 ft 288 kts 165°
2026-04-21 19:14 47.83334 16.43741 8399 ft 294 kts 161°
2026-04-21 19:15 47.81397 16.44695 9332 ft 298 kts 162°
2026-04-21 19:15 47.79401 16.45584 10237 ft 302 kts 164°
2026-04-21 19:15 47.77356 16.46426 10862 ft 316 kts 165°
2026-04-21 19:15 47.75223 16.47273 11705 ft 321 kts 166°
2026-04-21 19:16 47.73049 16.48127 12576 ft 326 kts 166°
2026-04-21 19:16 47.70869 16.48983 13422 ft 329 kts 166°
2026-04-21 19:16 47.68667 16.49847 14218 ft 333 kts 166°
2026-04-21 19:16 47.67164 16.50465 14765 ft 336 kts 163°
2026-04-21 19:17 47.66061 16.51056 15212 ft 339 kts 158°
2026-04-21 19:17 47.63924 16.52916 15636 ft 352 kts 138°
2026-04-21 19:17 47.62362 16.55804 16280 ft 354 kts 117°
2026-04-21 19:18 47.61291 16.59274 16874 ft 359 kts 111°
2026-04-21 19:18 47.60338 16.62761 17564 ft 361 kts 111°
2026-04-21 19:18 47.59378 16.66215 18116 ft 367 kts 112°
2026-04-21 19:18 47.58241 16.69662 18784 ft 370 kts 121°
2026-04-21 19:19 47.56593 16.72632 19368 ft 373 kts 139°
2026-04-21 19:19 47.54473 16.74899 19975 ft 375 kts 152°
2026-04-21 19:19 47.52110 16.76470 20525 ft 377 kts 164°
2026-04-21 19:19 47.49557 16.77323 21092 ft 378 kts 176°
2026-04-21 19:20 47.46930 16.77510 21682 ft 377 kts 183°
2026-04-21 19:20 47.44307 16.77447 22184 ft 381 kts 184°
2026-04-21 19:20 47.41650 16.77409 22764 ft 383 kts 182°
2026-04-21 19:20 47.38982 16.77448 23293 ft 386 kts 181°
2026-04-21 19:21 47.36264 16.77561 23835 ft 389 kts 180°
2026-04-21 19:21 47.33538 16.77730 24309 ft 392 kts 179°
2026-04-21 19:21 47.30728 16.77940 24765 ft 396 kts 179°
2026-04-21 19:21 47.27942 16.78173 25221 ft 399 kts 179°
2026-04-21 19:22 47.25076 16.78425 25656 ft 402 kts 179°
2026-04-21 19:22 47.22252 16.78681 26078 ft 405 kts 179°
2026-04-21 19:22 47.19423 16.78942 26468 ft 408 kts 179°
2026-04-21 19:22 47.16571 16.79207 26860 ft 411 kts 179°
2026-04-21 19:23 47.13701 16.79475 27222 ft 414 kts 180°
2026-04-21 19:23 47.10845 16.79744 27629 ft 416 kts 180°
2026-04-21 19:23 47.07952 16.80016 28008 ft 418 kts 180°
2026-04-21 19:23 47.05027 16.80292 28334 ft 422 kts 180°
2026-04-21 19:24 47.02109 16.80566 28692 ft 424 kts 180°
2026-04-21 19:24 46.99173 16.80842 29018 ft 426 kts 180°
2026-04-21 19:24 46.96176 16.81124 29313 ft 429 kts 180°
2026-04-21 19:24 46.93222 16.81431 29581 ft 433 kts 178°
2026-04-21 19:25 46.90213 16.82078 29877 ft 438 kts 172°
2026-04-21 19:25 46.87250 16.83369 30100 ft 446 kts 162°
2026-04-21 19:25 46.84439 16.85274 30344 ft 453 kts 154°
2026-04-21 19:25 46.81731 16.87685 30583 ft 458 kts 148°
2026-04-21 19:26 46.79178 16.90524 30752 ft 465 kts 142°
2026-04-21 19:26 46.76740 16.93641 30997 ft 467 kts 140°
2026-04-21 19:26 46.74368 16.96825 31263 ft 469 kts 140°
2026-04-21 19:26 46.71965 17.00048 31491 ft 470 kts 140°
2026-04-21 19:27 46.69539 17.03249 31681 ft 474 kts 141°
2026-04-21 19:27 46.67052 17.06460 31928 ft 475 kts 141°
2026-04-21 19:27 46.64568 17.09612 32153 ft 477 kts 142°
2026-04-21 19:27 46.62077 17.12732 32357 ft 479 kts 142°
2026-04-21 19:28 46.59539 17.15884 32551 ft 481 kts 142°
2026-04-21 19:28 46.56987 17.19037 32760 ft 483 kts 142°
2026-04-21 19:28 46.54412 17.22207 32957 ft 485 kts 142°
2026-04-21 19:28 46.51830 17.25378 33141 ft 488 kts 143°
2026-04-21 19:29 46.49263 17.28522 33308 ft 491 kts 143°
2026-04-21 19:29 46.46627 17.31747 33480 ft 494 kts 143°
2026-04-21 19:29 46.44002 17.34954 33745 ft 493 kts 142°
2026-04-21 19:29 46.41357 17.38181 33872 ft 497 kts 143°
2026-04-21 19:30 46.38732 17.41377 34137 ft 498 kts 142°
2026-04-21 19:30 46.36057 17.44632 34352 ft 499 kts 142°
2026-04-21 19:30 46.33428 17.47827 34736 ft 495 kts 142°
2026-04-21 19:30 46.30779 17.51044 35005 ft 494 kts 143°
2026-04-21 19:31 46.25487 17.57455 35038 ft 496 kts 143°
2026-04-21 19:31 46.20232 17.63807 35040 ft 493 kts 143°
2026-04-21 19:32 46.14956 17.70160 35040 ft 495 kts 143°
2026-04-21 19:32 46.09695 17.76480 35023 ft 495 kts 143°
2026-04-21 19:33 46.04425 17.82791 35035 ft 493 kts 143°
2026-04-21 19:33 45.99157 17.89082 35028 ft 497 kts 144°
2026-04-21 19:34 45.93821 17.95437 35022 ft 495 kts 144°
2026-04-21 19:34 45.88515 18.01752 35014 ft 496 kts 144°
2026-04-21 19:35 45.80438 18.11017 35007 ft 494 kts 150°
2026-04-21 19:35 45.77508 18.13467 35019 ft 486 kts 161°
2026-04-21 19:36 45.74353 18.15202 35017 ft 480 kts 168°
2026-04-21 19:36 45.67928 18.17671 35013 ft 478 kts 173°
2026-04-21 19:37 45.61450 18.19866 35006 ft 475 kts 173°
2026-04-21 19:37 45.55040 18.22086 35010 ft 477 kts 173°
2026-04-21 19:38 45.48568 18.24375 35014 ft 477 kts 172°
2026-04-21 19:38 45.42117 18.26685 35006 ft 477 kts 172°
2026-04-21 19:39 45.35660 18.29007 35009 ft 479 kts 172°
2026-04-21 19:39 45.29221 18.31328 35001 ft 478 kts 172°
2026-04-21 19:40 45.22744 18.33663 35014 ft 477 kts 173°
2026-04-21 19:40 45.16344 18.35957 35012 ft 478 kts 173°
2026-04-21 19:41 45.09813 18.38309 34996 ft 480 kts 171°
2026-04-21 19:41 45.03466 18.41213 34957 ft 480 kts 167°
2026-04-21 19:42 44.97155 18.44468 35010 ft 485 kts 167°
2026-04-21 19:42 44.90801 18.47730 35025 ft 482 kts 167°
2026-04-21 19:43 44.84462 18.50920 35037 ft 482 kts 167°
2026-04-21 19:43 44.78110 18.54078 35014 ft 482 kts 167°
2026-04-21 19:44 44.71757 18.57214 35036 ft 481 kts 167°
2026-04-21 19:44 44.65469 18.60316 35010 ft 478 kts 167°
2026-04-21 19:45 44.59161 18.63416 35007 ft 481 kts 167°
2026-04-21 19:45 44.52819 18.66526 35027 ft 481 kts 167°
2026-04-21 19:46 44.46484 18.69628 35011 ft 480 kts 167°
2026-04-21 19:46 44.40155 18.72710 35023 ft 481 kts 167°
2026-04-21 19:47 44.33863 18.75772 35033 ft 479 kts 167°
2026-04-21 19:47 44.27574 18.78824 35018 ft 479 kts 167°
2026-04-21 19:48 44.21276 18.81871 35016 ft 480 kts 167°
2026-04-21 19:48 44.15011 18.84898 35010 ft 480 kts 167°
2026-04-21 19:49 44.08712 18.87938 35009 ft 480 kts 167°
2026-04-21 19:49 44.02410 18.90971 34980 ft 479 kts 167°
2026-04-21 19:50 43.97158 18.93492 34985 ft 479 kts 167°
2026-04-21 19:50 43.89831 18.96999 34986 ft 477 kts 167°
2026-04-21 19:51 43.83534 19.00005 34994 ft 480 kts 167°
2026-04-21 19:51 43.77248 19.03005 34999 ft 478 kts 167°
2026-04-21 19:52 43.71001 19.05977 35000 ft 479 kts 167°
2026-04-21 19:52 43.64693 19.08967 34997 ft 478 kts 167°
2026-04-21 19:53 43.58441 19.11929 34992 ft 476 kts 167°
2026-04-21 19:53 43.52249 19.15296 34985 ft 484 kts 159°
2026-04-21 19:54 43.46334 19.19732 34973 ft 488 kts 154°
2026-04-21 19:54 43.40516 19.24525 34967 ft 489 kts 153°
2026-04-21 19:55 43.34699 19.29316 34960 ft 488 kts 154°
2026-04-21 19:55 43.28880 19.34053 34953 ft 488 kts 154°
2026-04-21 19:56 43.23051 19.38762 34950 ft 486 kts 154°
2026-04-21 19:56 43.17221 19.43447 34950 ft 487 kts 154°
2026-04-21 19:57 43.11370 19.48140 34955 ft 487 kts 154°
2026-04-21 19:57 43.05515 19.52821 34963 ft 487 kts 154°
2026-04-21 19:58 42.99677 19.57474 34972 ft 487 kts 154°
2026-04-21 19:58 42.93858 19.62102 34971 ft 486 kts 154°
2026-04-21 19:59 42.88032 19.66733 34958 ft 484 kts 155°
2026-04-21 19:59 42.82149 19.71396 34957 ft 485 kts 155°
2026-04-21 20:00 42.76252 19.76052 34950 ft 485 kts 154°
2026-04-21 20:00 42.70437 19.80637 34942 ft 486 kts 154°
2026-04-21 20:01 42.64570 19.85256 34941 ft 484 kts 154°
2026-04-21 20:01 42.58749 19.89840 34946 ft 484 kts 154°
2026-04-21 20:02 42.52936 19.94425 34954 ft 481 kts 154°
2026-04-21 20:02 42.47076 19.99032 34959 ft 484 kts 154°
2026-04-21 20:03 42.41219 20.03622 34944 ft 484 kts 154°
2026-04-21 20:03 42.35396 20.08173 34939 ft 483 kts 154°
2026-04-21 20:04 42.29561 20.12725 34956 ft 482 kts 154°
2026-04-21 20:04 42.23728 20.17269 34972 ft 482 kts 154°
2026-04-21 20:05 42.17919 20.21782 34972 ft 481 kts 154°
2026-04-21 20:05 42.12130 20.26267 34949 ft 481 kts 154°
2026-04-21 20:06 42.06335 20.30752 34934 ft 483 kts 154°
2026-04-21 20:06 42.00416 20.35325 34936 ft 481 kts 154°
2026-04-21 20:07 41.94599 20.39807 34935 ft 481 kts 154°
2026-04-21 20:07 41.88767 20.44290 34940 ft 482 kts 154°
2026-04-21 20:08 41.82948 20.48756 34949 ft 481 kts 154°
2026-04-21 20:08 41.77169 20.53186 34949 ft 481 kts 153°
2026-04-21 20:09 41.71523 20.58094 34947 ft 484 kts 148°
2026-04-21 20:09 41.66068 20.63302 34940 ft 484 kts 148°
2026-04-21 20:10 41.60526 20.68596 34936 ft 483 kts 149°
2026-04-21 20:10 41.55052 20.73750 34930 ft 483 kts 149°
2026-04-21 20:11 41.49560 20.78870 34934 ft 482 kts 149°
2026-04-21 20:11 41.44046 20.83990 34938 ft 482 kts 149°
2026-04-21 20:12 41.38561 20.89070 34941 ft 482 kts 149°
2026-04-21 20:12 41.33028 20.94181 34941 ft 481 kts 149°
2026-04-21 20:13 41.27484 20.99292 34942 ft 480 kts 149°
2026-04-21 20:13 41.21978 21.04354 34941 ft 480 kts 149°
2026-04-21 20:14 41.16424 21.09452 34929 ft 480 kts 149°
2026-04-21 20:14 41.10850 21.14555 34925 ft 480 kts 149°
2026-04-21 20:15 41.05223 21.19696 34925 ft 482 kts 149°
2026-04-21 20:15 40.99599 21.24827 34919 ft 480 kts 149°
2026-04-21 20:16 40.93967 21.29951 34924 ft 481 kts 149°
2026-04-21 20:16 40.88325 21.35073 34922 ft 480 kts 149°
2026-04-21 20:17 40.82750 21.40214 34921 ft 480 kts 148°
2026-04-21 20:17 40.77165 21.45471 34921 ft 481 kts 148°
2026-04-21 20:18 40.72541 21.49822 34914 ft 482 kts 148°
2026-04-21 20:18 40.65995 21.55955 34919 ft 481 kts 148°
2026-04-21 20:19 40.60457 21.61124 34927 ft 481 kts 148°
2026-04-21 20:19 40.54869 21.66324 34925 ft 480 kts 149°
2026-04-21 20:20 40.49272 21.71508 34930 ft 479 kts 149°
2026-04-21 20:20 40.43658 21.76704 34929 ft 479 kts 149°
2026-04-21 20:21 40.38086 21.81855 34928 ft 478 kts 149°
2026-04-21 20:21 40.32520 21.86991 34922 ft 478 kts 149°
2026-04-21 20:22 40.26946 21.92121 34912 ft 479 kts 149°
2026-04-21 20:22 40.18573 21.99812 34902 ft 479 kts 149°
2026-04-21 20:23 40.12947 22.04966 34899 ft 479 kts 149°
2026-04-21 20:23 40.07376 22.10056 34896 ft 476 kts 149°
2026-04-21 20:24 40.01830 22.15111 34903 ft 477 kts 149°
2026-04-21 20:24 39.96226 22.20207 34889 ft 476 kts 149°
2026-04-21 20:25 39.90642 22.25278 34888 ft 478 kts 149°
2026-04-21 20:25 39.85070 22.30329 34883 ft 478 kts 149°
2026-04-21 20:26 39.79482 22.35382 34879 ft 478 kts 149°
2026-04-21 20:26 39.73885 22.40431 34871 ft 480 kts 149°
2026-04-21 20:27 39.68265 22.45494 34870 ft 478 kts 149°
2026-04-21 20:27 39.62671 22.50524 34877 ft 479 kts 149°
2026-04-21 20:28 39.57076 22.55543 34873 ft 478 kts 149°
2026-04-21 20:28 39.51481 22.60554 34873 ft 479 kts 149°
2026-04-21 20:29 39.45838 22.65597 34872 ft 478 kts 150°
2026-04-21 20:29 39.40266 22.70566 34868 ft 478 kts 149°
2026-04-21 20:30 39.34690 22.75527 34863 ft 477 kts 149°
2026-04-21 20:30 39.29071 22.80515 34859 ft 477 kts 149°
2026-04-21 20:31 39.23510 22.85448 34862 ft 476 kts 149°
2026-04-21 20:31 39.17938 22.90382 34872 ft 476 kts 149°
2026-04-21 20:32 39.12353 22.95312 34877 ft 477 kts 149°
2026-04-21 20:32 39.06765 23.00234 34877 ft 476 kts 149°
2026-04-21 20:33 39.01187 23.05144 34874 ft 476 kts 149°
2026-04-21 20:33 38.95620 23.10030 34864 ft 476 kts 149°
2026-04-21 20:34 38.90017 23.14936 34857 ft 474 kts 149°
2026-04-21 20:34 38.84515 23.19747 34856 ft 475 kts 149°
2026-04-21 20:35 38.78974 23.24583 34856 ft 476 kts 149°
2026-04-21 20:35 38.73416 23.29426 34858 ft 477 kts 149°
2026-04-21 20:36 38.67836 23.34278 34864 ft 476 kts 149°
2026-04-21 20:36 38.62260 23.39116 34862 ft 476 kts 149°
2026-04-21 20:37 38.56674 23.43951 34870 ft 475 kts 149°
2026-04-21 20:37 38.51084 23.48783 34868 ft 475 kts 149°
2026-04-21 20:38 38.45511 23.53594 34884 ft 475 kts 149°
2026-04-21 20:38 38.39913 23.58416 34886 ft 476 kts 149°
2026-04-21 20:39 38.34343 23.63203 34895 ft 476 kts 149°
2026-04-21 20:39 38.28772 23.67981 34904 ft 475 kts 150°
2026-04-21 20:40 38.23198 23.72752 34907 ft 475 kts 150°
2026-04-21 20:40 38.17646 23.77500 34912 ft 475 kts 150°
2026-04-21 20:41 38.12080 23.82248 34916 ft 475 kts 150°
2026-04-21 20:41 38.06509 23.86989 34917 ft 476 kts 150°
2026-04-21 20:42 38.00922 23.91735 34914 ft 477 kts 150°
2026-04-21 20:42 37.95366 23.96446 34905 ft 477 kts 150°
2026-04-21 20:43 37.89838 24.01130 34908 ft 477 kts 150°
2026-04-21 20:43 37.84282 24.05827 34907 ft 476 kts 150°
2026-04-21 20:44 37.78772 24.10476 34903 ft 476 kts 150°
2026-04-21 20:44 37.73296 24.15086 34895 ft 476 kts 150°
2026-04-21 20:45 37.67762 24.19738 34891 ft 475 kts 150°
2026-04-21 20:45 37.62256 24.24357 34887 ft 475 kts 149°
2026-04-21 20:46 37.56745 24.28974 34888 ft 474 kts 149°
2026-04-21 20:46 37.51228 24.33473 34889 ft 474 kts 151°
2026-04-21 20:47 37.45625 24.37853 34896 ft 475 kts 152°
2026-04-21 20:47 37.39990 24.42235 34897 ft 474 kts 151°
2026-04-21 20:48 37.34422 24.46576 34900 ft 473 kts 152°
2026-04-21 20:48 37.28834 24.50937 34898 ft 474 kts 151°
2026-04-21 20:49 37.23238 24.55305 34905 ft 473 kts 151°
2026-04-21 20:49 37.17604 24.59693 34911 ft 474 kts 151°
2026-04-21 20:50 37.12009 24.64048 34910 ft 474 kts 151°
2026-04-21 20:50 37.06395 24.68406 34918 ft 472 kts 152°
2026-04-21 20:51 37.00764 24.72769 34930 ft 471 kts 152°
2026-04-21 20:51 36.95149 24.77113 34934 ft 471 kts 152°
2026-04-21 20:52 36.89553 24.81436 34941 ft 473 kts 152°
2026-04-21 20:52 36.83942 24.85775 34942 ft 473 kts 152°
2026-04-21 20:53 36.78329 24.90116 34939 ft 473 kts 152°
2026-04-21 20:53 36.75555 24.92259 34710 ft 469 kts 152°
2026-04-21 20:53 36.72792 24.94391 34091 ft 469 kts 152°
2026-04-21 20:54 36.70010 24.96536 33553 ft 465 kts 152°
2026-04-21 20:54 36.67278 24.98638 33011 ft 462 kts 152°
2026-04-21 20:54 36.64548 25.00733 32429 ft 460 kts 152°
2026-04-21 20:54 36.61746 25.02881 31831 ft 458 kts 151°
2026-04-21 20:55 36.58960 25.05014 31226 ft 456 kts 151°
2026-04-21 20:55 36.56186 25.07135 30629 ft 454 kts 151°
2026-04-21 20:55 36.53463 25.09216 30024 ft 452 kts 151°
2026-04-21 20:55 36.50759 25.11280 29431 ft 450 kts 151°
2026-04-21 20:56 36.48016 25.13374 28828 ft 448 kts 151°
2026-04-21 20:56 36.45311 25.15438 28234 ft 445 kts 151°
2026-04-21 20:56 36.42609 25.17497 27641 ft 443 kts 151°
2026-04-21 20:56 36.39912 25.19551 27044 ft 440 kts 151°
2026-04-21 20:57 36.37161 25.21645 26430 ft 438 kts 151°
2026-04-21 20:57 36.34578 25.23608 25859 ft 435 kts 151°
2026-04-21 20:57 36.31982 25.25581 25279 ft 433 kts 151°
2026-04-21 20:57 36.29443 25.27507 24712 ft 430 kts 151°
2026-04-21 20:58 36.26845 25.29478 24128 ft 428 kts 151°
2026-04-21 20:58 36.24308 25.31401 23559 ft 425 kts 150°
2026-04-21 20:58 36.21750 25.33338 22989 ft 423 kts 150°
2026-04-21 20:58 36.19230 25.35245 22420 ft 421 kts 150°
2026-04-21 20:59 36.16660 25.37187 21838 ft 418 kts 150°
2026-04-21 20:59 36.14062 25.39104 21266 ft 415 kts 152°
2026-04-21 20:59 36.11710 25.40625 20763 ft 411 kts 158°
2026-04-21 20:59 36.08942 25.42007 20170 ft 407 kts 162°
2026-04-21 21:00 36.06193 25.43152 19605 ft 404 kts 165°
2026-04-21 21:00 36.03395 25.44243 19028 ft 402 kts 165°
2026-04-21 21:00 36.00663 25.45294 18470 ft 399 kts 165°
2026-04-21 21:00 35.97923 25.46352 17910 ft 396 kts 165°
2026-04-21 21:01 35.95300 25.47376 17372 ft 394 kts 165°
2026-04-21 21:01 35.92735 25.48389 16848 ft 391 kts 164°
2026-04-21 21:01 35.90122 25.49428 16305 ft 388 kts 164°
2026-04-21 21:01 35.87544 25.50457 15765 ft 386 kts 164°
2026-04-21 21:02 35.84977 25.51484 15227 ft 383 kts 164°
2026-04-21 21:02 35.82416 25.52510 14696 ft 380 kts 164°
2026-04-21 21:02 35.79890 25.53522 14168 ft 378 kts 164°
2026-04-21 21:02 35.77349 25.54538 13642 ft 375 kts 163°
2026-04-21 21:03 35.74764 25.55572 13101 ft 372 kts 163°
2026-04-21 21:03 35.72229 25.56585 12570 ft 370 kts 163°
2026-04-21 21:03 35.69773 25.57713 12119 ft 366 kts 156°
2026-04-21 21:03 35.67515 25.59340 11707 ft 362 kts 145°
2026-04-21 21:04 35.65533 25.61227 11275 ft 358 kts 141°
2026-04-21 21:04 35.63651 25.63184 10846 ft 354 kts 140°
2026-04-21 21:04 35.61757 25.65159 10414 ft 350 kts 142°
2026-04-21 21:04 35.59670 25.66748 10083 ft 339 kts 161°
2026-04-21 21:05 35.57394 25.67264 9892 ft 323 kts 184°
2026-04-21 21:05 35.55158 25.66716 9485 ft 314 kts 205°
2026-04-21 21:05 35.53281 25.65368 9099 ft 307 kts 221°
2026-04-21 21:05 35.51718 25.63492 8701 ft 301 kts 232°
2026-04-21 21:06 35.50439 25.61355 8304 ft 295 kts 244°
2026-04-21 21:06 35.49779 25.58993 7946 ft 287 kts 264°
2026-04-21 21:06 35.49799 25.56489 7559 ft 282 kts 278°
2026-04-21 21:06 35.50077 25.54050 7190 ft 279 kts 278°
2026-04-21 21:07 35.50135 25.51630 6825 ft 277 kts 265°
2026-04-21 21:07 35.49751 25.49289 6469 ft 276 kts 255°
2026-04-21 21:07 35.49023 25.47056 6108 ft 274 kts 245°
2026-04-21 21:07 35.48074 25.45000 5753 ft 272 kts 240°
2026-04-21 21:08 35.47037 25.43066 5413 ft 270 kts 236°
2026-04-21 21:08 35.45787 25.41364 5239 ft 263 kts 219°
2026-04-21 21:08 35.44165 25.40463 5168 ft 254 kts 190°
2026-04-21 21:08 35.42464 25.40633 5106 ft 246 kts 161°
2026-04-21 21:09 35.40994 25.41604 5051 ft 235 kts 148°
2026-04-21 21:09 35.39622 25.42685 4977 ft 235 kts 150°
2026-04-21 21:09 35.38112 25.43558 4705 ft 241 kts 169°
2026-04-21 21:09 35.36484 25.43545 4413 ft 236 kts 200°
2026-04-21 21:10 35.35123 25.42510 4097 ft 231 kts 232°
2026-04-21 21:10 35.34366 25.40812 3763 ft 227 kts 252°
2026-04-21 21:10 35.33858 25.39009 3394 ft 225 kts 251°
2026-04-21 21:10 35.33274 25.37252 2942 ft 221 kts 249°
2026-04-21 21:11 35.32805 25.35520 2489 ft 209 kts 261°
2026-04-21 21:11 35.32786 25.33784 2042 ft 199 kts 277°
2026-04-21 21:11 35.32961 25.32165 1753 ft 185 kts 277°
2026-04-21 21:11 35.33090 25.30680 1658 ft 169 kts 276°
2026-04-21 21:12 35.33192 25.29291 1584 ft 155 kts 276°
2026-04-21 21:12 35.33284 25.28004 1401 ft 149 kts 276°
2026-04-21 21:12 35.33372 25.26755 1208 ft 148 kts 276°
2026-04-21 21:12 35.33461 25.25499 1011 ft 148 kts 276°
2026-04-21 21:13 35.33548 25.24248 865 ft 146 kts 276°
2026-04-21 21:13 35.33633 25.23026 697 ft 144 kts 276°
2026-04-21 21:13 35.33716 25.21825 513 ft 142 kts 276°
2026-04-21 21:13 35.33800 25.20620 338 ft 140 kts 275°
2026-04-21 21:14 35.33882 25.19435 166 ft 140 kts 275°
2026-04-21 21:14 35.33967 25.18263 89 ft 131 kts 276°
2026-04-21 21:14 35.34034 25.17341 89 ft 71 kts 275°
2026-04-21 21:14 35.34053 25.17038 86 ft 14 kts 271°
2026-04-21 21:15 35.34053 25.16923 86 ft 12 kts 266°
2026-04-21 21:15 35.34035 25.16862 87 ft 2 kts 206°
2026-04-21 21:15 35.34027 25.16861 87 ft 0 kts 176°
2026-04-21 21:15 35.34014 25.16873 88 ft 5 kts 131°
2026-04-21 21:16 35.33981 25.16929 90 ft 11 kts 123°
2026-04-21 21:16 35.33946 25.17043 94 ft 17 kts 100°
2026-04-21 21:16 35.33914 25.17206 98 ft 20 kts 130°
2026-04-21 21:16 35.33857 25.17294 105 ft 6 kts 143°
2026-04-21 21:17 35.33844 25.17325 107 ft 0 kts 111°